Location: Boissi�res
(45.2500°N, 2.3667°E)
Time: 07:47:02
(UTC+00:00)

Cosmos 2366 rocket - Pass Details

Date: 03 March 2021
Orbit: 954 x 998 km, 82.9° (Epoch: 19 April)

Event Time Altitude Azimuth Distance (km) Brightness Sun altitude
Rises 20:05:09 0° 196° (SSW) 3,678 7.0 -25.9°
Reaches altitude 10° 20:07:41 10° 199° (SSW) 2,740 6.3 -26.4°
Maximum altitude 20:13:56 65° 281° (W) 1,088 4.4 -27.4°
Drops below altitude 10° 20:20:16 10° 3° (N) 2,776 6.6 -28.4°
Sets 20:22:51 0° 7° (N) 3,730 7.2 -28.9°
